Location: Helsinki
(60.1699°N, 24.9384°E)
Time: 20:29:58
(UTC+02:00)

Transit 4A - Pass Details

Date: 29 October 2020
Orbit: 862 x 982 km, 66.8° (Epoch: 30 November)

Event Time Altitude Azimuth Distance (km) Brightness Sun altitude
Rises 15:43:48 0° 204° (SSW) 3,616 12.2 4.1°
Reaches altitude 10° 15:46:23 10° 199° (SSW) 2,689 11.4 3.9°
Maximum altitude 15:52:26 51° 126° (SE) 1,214 8.5 3.2°
Drops below altitude 10° 15:58:37 10° 53° (NE) 2,746 9.7 2.6°
Sets 16:01:16 0° 48° (NE) 3,699 10.3 2.3°
